[[{"header":{"parameterUnit":"m.s-1","parameterCategory":1,"la1":30.2991,"la2":30.254,"lo1":-89.0895,"lo2":-89.0444,"dy":0.0017,"dx":0.0017,"nx":28,"ny":28,"refTime":"2023-06-26T21:00:00:Z","depth":0,"parameterNumber":2,"parameterNumberName":"U-component_of_WINDS"},"data":[0,0,0,0,0,0,0,0,0,0,0,0,0,0,0,0,0,0,0,0,0,0,0,0,0,0,0,0,0,0,0,0,0,0,0,0,0,0,0,0,0,0,0,0,0,0,0,0,0,0,0,0,0,0,0,0,0,0,3.8524,3.8525,0,3.856,3.856,3.8561,3.8448,3.8444,3.8441,3.8438,3.8474,3.8478,3.8482,0,0,0,0,0,0,0,0,0,0,0,0,0,3.8359,3.8362,3.8524,3.8525,3.8525,3.856,3.856,3.8561,3.8448,3.8444,3.844,3.8436,3.8473,3.8478,3.8483,0,0,0,0,0,0,0,0,0,0,0,0,0,3.8416,3.8364,3.8524,3.8473,3.8469,3.856,3.856,3.8561,3.8449,3.8444,3.8439,3.8434,3.8471,3.8477,3.8483,3.8625,0,0,3.8502,3.8505,0,0,0,0,0,0,0,0,3.8413,3.8422,3.848,3.8477,3.8472,3.8494,3.8515,3.8582,3.845,3.8457,3.8437,3.8432,3.8485,3.849,3.8508,3.8626,3.8628,3.8503,3.8507,3.8509,3.8511,0,0,0,0,0,0,0,3.8409,3.842,3.8538,3.8481,3.8476,3.8448,3.8451,3.8527,3.8499,3.8456,3.8448,3.8453,3.8482,3.8502,3.8508,3.8628,3.8503,3.8508,3.8512,3.8515,3.8864,3.8869,0,0,0,0,0,0,3.8412,3.8418,3.8537,3.8539,3.8429,3.8456,3.8458,3.8492,3.8498,3.8494,3.8458,3.8448,3.8494,3.85,3.8508,3.8674,3.8509,3.8515,3.8519,3.8859,3.8865,3.8871,0,0,0,0,0,0,3.8409,3.8424,3.8536,3.8476,3.8488,3.8464,3.8503,3.8496,3.8516,3.8499,3.8494,3.8484,3.849,3.85,3.8596,3.8673,3.8518,3.8524,3.8852,3.8861,3.8868,3.9006,0,0,0,0,0,0,3.8405,3.8423,3.8477,3.8478,3.8492,3.8624,3.8508,3.85,3.8527,3.8514,3.8522,3.8519,3.8487,3.8588,3.8603,3.8679,3.8528,3.8845,3.8856,3.8866,3.8994,3.9018,3.9038,0,0,0,0,0,3.8399,3.8515,3.848,3.8495,3.8559,3.8628,3.8636,3.8597,3.8533,3.8587,3.8576,3.8518,3.8663,3.8599,3.8614,3.8694,3.884,3.8853,3.8865,3.8985,3.9013,3.9038,0,0,0,0,0,0,3.8523,3.8514,3.8476,3.8595,3.8613,3.8609,3.8675,3.8629,3.8665,3.8652,3.8602,3.8605,3.8711,3.8712,3.8641,3.8831,3.874,3.8757,3.8826,3.8853,3.8875,3.8872,3.8534,0,0,0,0,0,3.8564,3.8622,3.861,3.8717,3.8728,3.8701,3.8729,3.8698,3.8715,3.8722,3.8718,3.8737,3.8786,3.882,3.8864,3.8994,3.8994,3.9057,3.9079,3.9097,3.9111,3.9179,3.9207,3.8912,3.8912,3.8912,0,0,3.865,3.8652,3.8691,3.8742,3.8752,3.8812,3.8708,3.8776,3.882,3.8732,3.8823,3.8821,3.8839,3.8953,3.9002,3.8957,3.9192,3.9112,3.9127,3.9132,3.9195,3.9223,3.9247,3.8921,3.8919,3.8918,0,0,3.8837,3.8844,3.8933,3.8946,3.8963,3.8944,3.8966,3.8969,3.8964,3.9054,3.8989,3.9041,3.9127,3.9142,3.9161,3.9353,3.9301,3.9369,3.9483,3.955,3.9573,3.9593,3.9661,3.9686,3.9384,3.9384,3.9384,0,3.8941,3.9029,3.8985,3.9058,3.9082,3.9005,3.9094,3.9108,3.914,3.9158,3.9106,3.9212,3.9219,3.9334,3.9381,3.9399,3.9422,3.9368,3.9573,3.9593,3.9612,3.9676,3.9701,3.9392,3.9391,3.939,3.939,0,3.9156,3.9219,3.9289,3.932,3.9352,3.9433,3.9401,3.9438,3.9404,3.939,3.9483,3.9488,3.9532,3.9557,3.9524,3.9668,3.9639,3.9582,3.949,3.9648,3.9708,3.9732,3.9404,3.9401,3.9398,3.9396,0,0,3.9422,3.9428,3.9454,3.9467,3.948,3.9528,3.9605,3.9648,3.9681,3.9705,3.9768,3.9842,3.9789,3.981,3.9778,3.9837,3.9988,3.9772,3.9771,3.9811,4.0147,4.019,4.0219,3.9954,3.9958,3.9962,4.0145,0,3.9605,3.9738,3.97,3.9833,3.9889,3.9816,3.9884,3.9899,3.9888,3.9935,3.9922,3.9976,3.9902,3.9914,3.9969,3.9959,4.0055,3.9945,4.0012,4.0015,4.0009,4.025,4.0296,4.0468,4.0168,4.0172,4.0175,0,3.9837,3.987,4.0008,4.0011,4.0033,4.0094,4.013,4.0176,4.0191,4.0179,4.0203,4.0159,4.0235,4.0143,4.0246,4.0172,4.0197,4.0196,4.0202,4.0206,4.0104,4.026,4.0522,4.0548,4.0211,4.0208,4.0206,0,4.0016,4.0095,4.0187,4.0201,4.0207,4.0252,4.0256,4.0266,4.0294,4.0326,4.0343,4.0383,4.0405,4.0437,4.0405,4.0341,4.0513,4.0418,4.0504,4.0505,4.0543,4.0541,4.0813,4.0561,4.0561,4.056,4.056,0,4.0225,4.0312,4.0268,4.0325,4.042,4.0376,4.0472,4.0468,4.0478,4.0532,4.0472,4.0525,4.0479,4.0528,4.0503,4.0591,4.0602,4.0594,4.0586,4.0599,4.06,4.0615,4.0601,4.0567,4.0565,4.0564,4.0563,0,4.0441,4.0415,4.0511,4.0509,4.051,4.0581,4.0578,4.0631,4.0615,4.0685,4.0699,4.0676,4.0729,4.07,4.0756,4.0739,4.0854,4.083,4.0849,4.0842,4.093,4.0922,4.1219,4.1256,4.0982,4.0984,4.0987,0,4.0575,4.0641,4.0645,4.0678,4.0686,4.0739,4.0767,4.0726,4.0758,4.078,4.083,4.0878,4.0915,4.1004,4.0992,4.1034,4.101,4.1111,4.1016,4.1026,4.1011,4.1007,4.1013,4.1131,4.1134,4.1136,4.1138,0,4.0817,4.08,4.0843,4.0882,4.0917,4.0945,4.0969,4.0999,4.0958,4.0996,4.105,4.1079,4.1135,4.1184,4.122,4.1224,4.1175,4.1169,4.1191,4.1204,4.1212,4.1208,4.0901,4.1162,4.116,4.1158,4.1157,4.1156,4.0995,4.105,4.1061,4.1111,4.1124,4.1147,4.1196,4.1187,4.1231,4.1274,4.1247,4.1311,4.1323,4.1367,4.1377,4.1426,4.1385,4.1418,4.1425,4.1434,4.1445,4.1205,4.1433,4.1432,4.1431,4.1431,4.143,0,4.1233,4.1237,4.1283,4.1317,4.1356,4.1306,4.1329,4.1365,4.1422,4.1438,4.1475,4.1537,4.1584,4.1575,4.1617,4.1658,4.1637,4.1671,4.1667,4.1668,4.148,4.1456,4.1687,4.1687,4.1687,4.1687,4.1687,4.1687,4.1361,4.145,4.1435,4.153,4.1533,4.1595,4.1612,4.1633,4.1645,4.1717,4.1756,4.175,4.1756,4.1798,4.1839,4.1835,4.1853,4.1895,4.1883,4.1707,4.1682,4.1657,4.1635,4.19,4.19,4.2067,4.2069,4.207]},{"header":{"parameterUnit":"m.s-1","parameterCategory":1,"la1":30.2991,"la2":30.254,"lo1":-89.0895,"lo2":-89.0444,"dy":0.0017,"dx":0.0017,"nx":28,"ny":28,"refTime":"2023-06-26T21:00:00:Z","depth":0,"parameterNumber":3,"parameterNumberName":"V-component_of_WINDS"},"data":[0,0,0,0,0,0,0,0,0,0,0,0,0,0,0,0,0,0,0,0,0,0,0,0,0,0,0,0,0,0,0,0,0,0,0,0,0,0,0,0,0,0,0,0,0,0,0,0,0,0,0,0,0,0,0,0,0,0,1.5952,1.5952,0,1.5944,1.5943,1.5943,1.5908,1.5907,1.5907,1.5906,1.5897,1.5898,1.5898,0,0,0,0,0,0,0,0,0,0,0,0,0,1.5937,1.5937,1.5952,1.5952,1.5952,1.5944,1.5943,1.5943,1.5908,1.5907,1.5906,1.5905,1.5897,1.5898,1.5898,0,0,0,0,0,0,0,0,0,0,0,0,0,1.5937,1.5937,1.5952,1.5933,1.5932,1.5944,1.5943,1.5943,1.5909,1.5907,1.5906,1.5905,1.5897,1.5898,1.5898,1.5928,0,0,1.5901,1.5901,0,0,0,0,0,0,0,0,1.5937,1.5938,1.5936,1.5935,1.5933,1.5926,1.5935,1.5938,1.5909,1.5917,1.5906,1.5904,1.5908,1.5907,1.5909,1.5927,1.5927,1.5901,1.5901,1.5902,1.5902,0,0,0,0,0,0,0,1.5937,1.5938,1.5949,1.5936,1.5934,1.5925,1.5924,1.5935,1.5919,1.5916,1.5914,1.5913,1.5906,1.5908,1.5908,1.5927,1.5901,1.5901,1.5902,1.5902,1.5967,1.5968,0,0,0,0,0,0,1.594,1.5938,1.5949,1.5948,1.5932,1.5926,1.5925,1.5929,1.5919,1.5917,1.5914,1.5912,1.5907,1.5907,1.5908,1.594,1.5902,1.5902,1.5903,1.5966,1.5967,1.5968,0,0,0,0,0,0,1.594,1.5941,1.5949,1.5943,1.5943,1.5928,1.5933,1.593,1.5931,1.5918,1.5915,1.5919,1.5906,1.5907,1.5922,1.5939,1.5903,1.5903,1.5964,1.5966,1.5968,1.6006,0,0,0,0,0,0,1.5939,1.5941,1.5953,1.5943,1.5943,1.5965,1.5934,1.593,1.5933,1.5929,1.5921,1.5919,1.5905,1.5921,1.5923,1.594,1.5904,1.5963,1.5965,1.5967,1.6003,1.6009,1.6014,0,0,0,0,0,1.5939,1.5965,1.5954,1.5955,1.5958,1.5966,1.5966,1.595,1.5934,1.5945,1.5936,1.5919,1.5937,1.5923,1.5925,1.5942,1.5961,1.5964,1.5967,1.6001,1.6008,1.6014,0,0,0,0,0,0,1.5977,1.5963,1.5951,1.5974,1.5971,1.596,1.5974,1.5959,1.5961,1.5957,1.5937,1.5936,1.5954,1.595,1.5935,1.5969,1.5946,1.5949,1.5971,1.5978,1.5983,1.5984,1.5905,0,0,0,0,0,1.5988,1.5997,1.5984,1.6005,1.6004,1.5989,1.5992,1.598,1.5977,1.5976,1.5968,1.5965,1.597,1.5974,1.5978,1.6002,1.5999,1.6014,1.602,1.6024,1.6027,1.6038,1.6045,1.5978,1.5978,1.5978,0,0,1.6012,1.6005,1.6011,1.6013,1.6009,1.6018,1.5989,1.5999,1.6005,1.5977,1.5991,1.5986,1.5981,1.6001,1.6009,1.5998,1.6045,1.6028,1.6032,1.6032,1.6042,1.6048,1.6054,1.5979,1.5979,1.5979,0,0,1.6058,1.6054,1.6071,1.6068,1.6062,1.6052,1.6056,1.6046,1.6041,1.6055,1.6034,1.604,1.6049,1.6046,1.6046,1.6089,1.6072,1.609,1.6118,1.6129,1.6135,1.6139,1.6153,1.6159,1.6093,1.6094,1.6094,0,1.6088,1.61,1.6081,1.6093,1.6093,1.6068,1.6084,1.6082,1.6078,1.6079,1.6066,1.6075,1.6071,1.6089,1.6099,1.61,1.6103,1.6091,1.6135,1.614,1.6144,1.6157,1.6163,1.6096,1.6095,1.6095,1.6095,0,1.6135,1.6144,1.6158,1.6154,1.6157,1.6171,1.6154,1.6158,1.6145,1.6135,1.6149,1.6142,1.6143,1.6146,1.6134,1.6162,1.6155,1.6139,1.6116,1.6153,1.6165,1.617,1.6099,1.6098,1.6097,1.6097,0,0,1.6207,1.6192,1.6197,1.6195,1.6186,1.6192,1.6204,1.6205,1.6208,1.6206,1.6215,1.6222,1.6206,1.6206,1.6193,1.6203,1.6235,1.6185,1.6185,1.6194,1.6264,1.6276,1.6283,1.6224,1.6225,1.6226,1.6264,0,1.6251,1.627,1.6253,1.6276,1.6283,1.6257,1.6267,1.6263,1.6254,1.6258,1.6248,1.6253,1.6232,1.6232,1.624,1.623,1.6249,1.6227,1.6232,1.6232,1.6234,1.6289,1.6302,1.6339,1.6269,1.627,1.627,0,1.6305,1.6304,1.6327,1.6315,1.6317,1.6327,1.6325,1.6329,1.6323,1.6315,1.6314,1.6298,1.6307,1.6285,1.6297,1.6282,1.6283,1.6278,1.6279,1.6279,1.6254,1.629,1.635,1.6356,1.6278,1.6277,1.6277,0,1.6353,1.6358,1.6372,1.6371,1.6358,1.6364,1.6359,1.6351,1.6352,1.6351,1.6351,1.635,1.635,1.635,1.6333,1.6318,1.6347,1.6323,1.6341,1.6341,1.6348,1.6348,1.6409,1.635,1.6349,1.6349,1.6349,0,1.6404,1.6419,1.6394,1.6403,1.6418,1.6398,1.6413,1.6405,1.6398,1.6404,1.6382,1.6388,1.6366,1.637,1.6357,1.6368,1.6368,1.6362,1.6358,1.6364,1.6365,1.6364,1.6361,1.6351,1.635,1.635,1.635,0,1.6461,1.6445,1.6459,1.6444,1.6441,1.6453,1.644,1.6447,1.6436,1.6443,1.6444,1.6426,1.6429,1.6412,1.6412,1.6403,1.6421,1.6413,1.6423,1.642,1.6438,1.6437,1.6501,1.6508,1.6444,1.6445,1.6446,0,1.6494,1.6505,1.6491,1.6493,1.6489,1.6493,1.6493,1.6473,1.6474,1.6467,1.6474,1.6475,1.6474,1.6479,1.6466,1.6465,1.6457,1.6479,1.6457,1.6461,1.6456,1.6456,1.6456,1.6484,1.6485,1.6486,1.6486,0,1.6554,1.6545,1.6547,1.6545,1.6545,1.6543,1.6539,1.6542,1.652,1.6522,1.6524,1.6524,1.6523,1.6523,1.6519,1.6513,1.6496,1.6493,1.6497,1.6503,1.6508,1.6505,1.6435,1.6492,1.6492,1.6491,1.6491,1.6491,1.66,1.6607,1.6598,1.66,1.6595,1.6591,1.6596,1.6585,1.6587,1.6584,1.6572,1.6576,1.6567,1.656,1.6555,1.6557,1.6546,1.6552,1.6554,1.6555,1.6558,1.6508,1.6557,1.6556,1.6556,1.6556,1.6556,0,1.6658,1.665,1.6652,1.6647,1.6648,1.6631,1.6625,1.6627,1.663,1.6624,1.6623,1.6625,1.6624,1.6611,1.6608,1.6613,1.6605,1.6613,1.6612,1.6611,1.6568,1.6565,1.6619,1.6619,1.6619,1.6619,1.6619,1.6619,1.6688,1.67,1.6689,1.6697,1.669,1.6693,1.6691,1.6687,1.6682,1.6684,1.6684,1.6674,1.6664,1.6661,1.666,1.6655,1.6655,1.6666,1.6659,1.662,1.6614,1.6608,1.6605,1.6666,1.6667,1.6701,1.6701,1.6702]}]]